EW3302 Weather Reports


Display with metric or nautical units.
time (UTC)temp
F
wind
direction
speed
MPH
gust
MPH
rain 1hr
in
rain 24hr
in
rain mn
in
humidity
%
barometer
mb
20260903001516 52 315 1.0 2.0 0.00 0.00 0.00 82 1004.4
20260903000517 53 248 1.0 4.0 0.00 0.00 0.00 82 1004.4
20260902235517 53 225 2.0 6.0 0.00 0.00 0.00 81 1004.4
20260902234537 53 225 3.0 8.0 0.00 0.00 0.00 81 1004.5
20260902233517 53 203 3.0 7.0 0.00 0.00 0.00 80 1004.4
20260902232517 53 180 4.0 11.0 0.00 0.00 0.00 80 1004.4
20260902231517 53 203 2.0 4.0 0.00 0.00 0.00 80 1004.4
20260902230517 54 203 2.0 5.0 0.00 0.00 0.00 79 1004.5
20260902225517 54 180 3.0 7.0 0.00 0.00 0.00 78 1004.4
20260902224517 54 203 4.0 10.0 0.00 0.00 0.00 78 1004.5
20260902223516 54 203 3.0 7.0 0.00 0.00 0.00 78 1004.5
20260902222516 55 248 3.0 8.0 0.00 0.00 0.00 77 1004.6
20260902221517 55 203 4.0 8.0 0.00 0.00 0.00 76 1004.6
20260902220516 55 180 5.0 10.0 0.00 0.00 0.00 75 1004.5
20260902215516 56 203 5.0 14.0 0.00 0.00 0.00 75 1004.5
20260902214536 56 203 5.0 9.0 0.00 0.00 0.00 75 1004.6
20260902213516 56 203 5.0 12.0 0.00 0.00 0.00 74 1004.6
20260902212516 56 180 5.0 12.0 0.00 0.00 0.00 74 1004.6
20260902211516 56 225 5.0 11.0 0.00 0.00 0.00 73 1004.6
20260902210536 57 225 6.0 12.0 0.00 0.00 0.00 73 1004.5
20260902205516 57 203 6.0 14.0 0.00 0.00 0.00 72 1004.6
20260902204516 56 203 6.0 13.0 0.00 0.00 0.00 72 1004.5
20260902203516 56 225 5.0 11.0 0.00 0.00 0.00 72 1004.6
20260902202536 56 203 6.0 11.0 0.00 0.00 0.00 72 1004.6
20260902201516 56 203 4.0 9.0 0.00 0.00 0.00 71 1004.7
20260902200516 56 203 4.0 11.0 0.00 0.00 0.00 71 1004.7
20260902195516 56 225 4.0 8.0 0.00 0.00 0.00 69 1004.7
20260902194516 56 180 4.0 8.0 0.00 0.00 0.00 68 1004.7
20260902193516 56 203 4.0 7.0 0.00 0.00 0.00 68 1004.8
20260902192516 56 203 4.0 7.0 0.00 0.00 0.00 69 1004.9
20260902191516 56 203 2.0 4.0 0.00 0.00 0.00 69 1004.8
20260902190517 56 203 2.0 5.0 0.00 0.00 0.00 68 1004.8
20260902185516 57 203 2.0 6.0 0.00 0.00 0.00 67 1004.7
20260902184516 58 203 2.0 7.0 0.00 0.00 0.00 65 1004.7
20260902183516 58 203 3.0 7.0 0.00 0.00 0.00 64 1004.6
20260902182536 59 203 3.0 6.0 0.00 0.00 0.00 63 1004.6
20260902181536 59 180 3.0 8.0 0.00 0.00 0.00 62 1004.6
20260902180516 60 203 3.0 7.0 0.00 0.00 0.00 60 1004.6
20260902175516 61 203 3.0 5.0 0.00 0.00 0.00 60 1004.5
20260902174536 61 180 3.0 7.0 0.00 0.00 0.00 58 1004.5
20260902173516 62 225 4.0 11.0 0.00 0.00 0.00 57 1004.5
20260902172516 62 225 4.0 9.0 0.00 0.00 0.00 56 1004.4
20260902171516 62 225 4.0 11.0 0.00 0.00 0.00 55 1004.4
20260902170516 63 180 5.0 10.0 0.00 0.00 0.00 55 1004.3
20260902165516 64 203 4.0 12.0 0.00 0.00 0.00 56 1004.3
20260902164516 64 225 5.0 12.0 0.00 0.00 0.00 53 1004.3
20260902163536 64 225 3.0 8.0 0.00 0.00 0.00 53 1004.3
20260902162516 65 225 5.0 10.0 0.00 0.00 0.00 52 1004.3
20260902161516 65 225 5.0 12.0 0.00 0.00 0.00 51 1004.4
20260902160516 65 180 6.0 12.0 0.00 0.00 0.00 50 1004.3
20260902155516 65 225 6.0 13.0 0.00 0.00 0.00 50 1004.3
20260902154516 66 248 6.0 17.0 0.00 0.00 0.00 52 1004.3
20260902153516 66 225 7.0 14.0 0.00 0.00 0.00 49 1004.3
20260902152516 66 203 6.0 10.0 0.00 0.00 0.00 50 1004.2
20260902151516 66 225 7.0 13.0 0.00 0.00 0.00 50 1004.3
20260902150516 65 203 4.0 10.0 0.00 0.00 0.00 51 1004.3
20260902145516 66 180 6.0 12.0 0.00 0.00 0.00 49 1004.4
20260902144516 67 225 8.0 14.0 0.00 0.00 0.00 48 1004.3
20260902143516 67 225 8.0 15.0 0.00 0.00 0.00 48 1004.2
20260902142536 66 203 6.0 19.0 0.00 0.00 0.00 50 1004.2
20260902141536 66 203 6.0 14.0 0.00 0.00 0.00 49 1004.2
20260902140515 67 203 8.0 17.0 0.00 0.00 0.00 50 1004.2
20260902135516 67 203 8.0 17.0 0.00 0.00 0.00 49 1004.2
20260902134536 68 203 8.0 15.0 0.00 0.00 0.00 50 1004.2
20260902133515 68 225 8.0 15.0 0.00 0.00 0.00 50 1004.2
20260902132515 68 180 8.0 15.0 0.00 0.00 0.00 53 1004.1
20260902131516 68 203 10.0 16.0 0.00 0.00 0.00 53 1004.1
20260902130516 68 203 9.0 16.0 0.00 0.00 0.00 53 1004.2
20260902125536 68 203 7.0 14.0 0.00 0.00 0.00 58 1004.2
20260902124515 69 203 6.0 15.0 0.00 0.00 0.00 57 1004.2
20260902123516 68 180 6.0 14.0 0.00 0.00 0.00 57 1004.2
20260902122516 68 203 8.0 15.0 0.00 0.00 0.00 55 1004.2
20260902121515 69 203 6.0 15.0 0.00 0.00 0.00 58 1004.2
20260902120535 68 203 6.0 12.0 0.00 0.00 0.00 57 1004.3
20260902115515 67 203 5.0 11.0 0.00 0.00 0.00 58 1004.4
20260902114536 66 180 6.0 11.0 0.00 0.00 0.00 59 1004.5
20260902113516 65 203 6.0 12.0 0.00 0.00 0.00 60 1004.6
20260902112515 65 203 5.0 10.0 0.00 0.00 0.00 60 1004.7
20260902111515 65 203 6.0 11.0 0.00 0.00 0.00 60 1004.8
20260902110536 65 248 6.0 11.0 0.00 0.00 0.00 62 1004.9
20260902105535 66 203 5.0 10.0 0.00 0.00 0.00 68 1005.1
20260902104516 64 180 4.0 7.0 0.00 0.00 0.00 69 1005.2
20260902103535 63 180 4.0 8.0 0.00 0.00 0.00 71 1005.3
20260902102515 64 225 4.0 7.0 0.00 0.00 0.00 69 1005.4
20260902101515 64 180 4.0 11.0 0.00 0.00 0.00 72 1005.5
20260902100516 63 180 3.0 8.0 0.00 0.00 0.00 74 1005.5
20260902095515 62 203 5.0 9.0 0.00 0.00 0.00 73 1005.5
20260902094515 62 180 6.0 11.0 0.00 0.00 0.00 73 1005.6
20260902093535 62 203 5.0 9.0 0.00 0.00 0.00 73 1005.6
20260902092536 63 180 7.0 14.0 0.00 0.00 0.00 72 1005.6
20260902091536 62 180 7.0 16.0 0.00 0.00 0.00 72 1005.7
20260902090536 62 180 5.0 13.0 0.00 0.00 0.00 71 1005.7
20260902085515 62 203 5.0 9.0 0.00 0.00 0.00 73 1005.7
20260902084515 62 203 4.0 8.0 0.00 0.00 0.00 72 1005.6
20260902083515 63 180 6.0 10.0 0.00 0.00 0.00 72 1005.7
20260902082515 62 180 5.0 10.0 0.00 0.00 0.00 74 1005.6
20260902081515 62 180 5.0 8.0 0.00 0.00 0.00 76 1005.6
20260902080535 61 225 5.0 9.0 0.00 0.00 0.00 75 1005.5
20260902075516 61 225 1.0 4.0 0.00 0.00 0.00 78 1005.5
20260902074516 61 270 3.0 6.0 0.00 0.00 0.00 77 1005.6
20260902073517 61 180 3.0 8.0 0.00 0.00 0.00 79 1005.5
20260902072515 61 203 5.0 8.0 0.00 0.00 0.00 80 1005.6
20260902071515 60 203 5.0 8.0 0.00 0.00 0.00 82 1005.5
20260902070515 59 180 3.0 6.0 0.00 0.00 0.00 83 1005.6
20260902065516 59 203 2.0 6.0 0.00 0.00 0.00 85 1005.6
20260902064515 58 180 3.0 5.0 0.00 0.00 0.00 86 1005.6
20260902063516 58 135 2.0 4.0 0.00 0.00 0.00 86 1005.6
20260902062515 58 23 1.0 2.0 0.00 0.00 0.00 87 1005.7
20260902061515 57 23 1.0 2.0 0.00 0.00 0.00 87 1005.7
20260902060518 57 0.0 1.0 0.00 0.00 0.00 88 1005.7
20260902055517 57 0.0 1.0 0.00 0.00 0.00 87 1005.8
20260902054517 57 270 1.0 2.0 0.00 0.00 0.00 88 1005.7
20260902053538 56 0.0 1.0 0.00 0.00 0.00 88 1005.9
20260902052537 56 0.0 2.0 0.00 0.00 0.00 88 1005.9
20260902051517 56 225 1.0 4.0 0.00 0.00 0.00 89 1006.0
20260902050517 56 180 3.0 6.0 0.00 0.00 0.00 89 1006.0
20260902045517 55 203 3.0 6.0 0.00 0.00 0.00 92 1006.1
20260902044517 55 203 5.0 7.0 0.00 0.00 0.00 93 1006.1
20260902043517 55 203 4.0 8.0 0.00 0.00 0.00 96 1006.0
20260902042537 55 203 2.0 3.0 0.00 0.00 0.00 96 1006.0
20260902041517 55 203 3.0 5.0 0.00 0.00 0.00 96 1006.1
20260902040517 55 180 3.0 6.0 0.00 0.00 0.00 97 1006.1
20260902035517 55 180 2.0 4.0 0.00 0.00 0.00 97 1006.2
20260902034517 54 180 1.0 3.0 0.00 0.00 0.00 97 1006.2
20260902033517 54 203 1.0 2.0 0.00 0.00 0.00 97 1006.1
20260902032517 54 180 1.0 3.0 0.00 0.00 0.00 97 1006.3
20260902031517 53 180 2.0 5.0 0.00 0.00 0.00 97 1006.3
20260902030517 52 158 1.0 3.0 0.00 0.00 0.00 97 1006.4
20260902025517 50 0.0 1.0 0.00 0.00 0.00 96 1006.5
20260902024517 50 23 1.0 2.0 0.00 0.00 0.00 96 1006.4
20260902023517 49 225 1.0 2.0 0.00 0.00 0.00 96 1006.5
20260902022518 48 225 1.0 4.0 0.00 0.00 0.00 96 1006.4
20260902021518 47 0.0 1.0 0.00 0.00 0.00 95 1006.3
20260902020517 47 113 1.0 3.0 0.00 0.00 0.00 95 1006.4
20260902015517 47 0.0 1.0 0.00 0.00 0.00 95 1006.4
20260902014537 47 0.0 1.0 0.00 0.00 0.00 95 1006.5
20260902013518 47 0.0 0.0 0.00 0.00 0.00 95 1006.4
20260902012537 48 0.0 1.0 0.00 0.00 0.00 94 1006.5
20260902011517 48 0.0 1.0 0.00 0.00 0.00 94 1006.6
20260902010537 48 0.0 1.0 0.00 0.00 0.00 95 1006.5
20260902005518 48 0.0 0.0 0.00 0.00 0.00 95 1006.5
20260902004519 48 0.0 0.0 0.00 0.00 0.00 95 1006.5
20260902003517 48 0.0 0.0 0.00 0.00 0.00 94 1006.5
20260902002517 48 0.0 1.0 0.00 0.00 0.00 94 1006.6